CW5841 Weather Reports


time (UTC)temp
F
wind
direction
speed
knots
gust
knots
rain 1hr
in
rain 24hr
in
rain mn
in
humidity
%
barometer
mb
20260502163605 61 38 0.9 0.9 0.00 0.00 0.00 59 1012.8
20260502163105 61 38 0.0 2.6 0.00 0.00 0.00 60 1012.8
20260502160604 62 38 1.7 2.6 0.00 0.00 0.00 58 1012.9
20260502160104 62 38 0.0 2.6 0.00 0.00 0.00 60 1013.0
20260502150104 63 38 0.9 4.3 0.00 0.00 0.00 63 1013.6
20260502130604 63 39 1.7 4.3 0.00 0.00 0.00 59 1014.8
20260502130104 63 40 1.7 6.1 0.00 0.00 0.00 59 1014.8
20260502110604 59 191 0.9 2.6 0.00 0.00 0.00 69 1016.1
20260502110104 59 119 1.7 6.1 0.00 0.00 0.00 66 1016.1
20260502103105 59 78 0.9 5.2 0.00 0.00 0.00 71 1016.1
20260502100605 58 172 0.9 4.3 0.00 0.00 0.00 73 1016.4
20260502090603 54 38 1.7 2.6 0.00 0.00 0.00 82 1016.9
20260502080104 50 37 0.9 4.3 0.00 0.00 0.00 97 1017.0
20260502070105 46 37 0.0 0.9 0.00 0.00 0.00 100 1017.3
20260502053104 42 37 0.0 0.0 0.00 0.00 0.00 100 1017.0
20260502050604 41 37 0.0 0.0 0.00 0.00 0.00 100 1017.0
20260502043104 42 37 0.0 0.0 0.00 0.00 0.00 100 1017.0
20260502040603 42 37 0.0 0.0 0.00 0.00 0.00 100 1017.0
20260502033104 43 37 0.0 0.9 0.00 0.00 0.00 100 1017.3
20260502030603 43 37 0.0 0.0 0.00 0.00 0.00 100 1017.3
20260502020603 45 37 0.0 0.0 0.00 0.00 0.00 100 1017.5
20260502020104 45 37 0.0 0.0 0.00 0.00 0.00 100 1017.5
20260502003105 47 37 0.0 0.0 0.00 0.00 0.00 100 1018.1
20260502000603 48 37 0.0 0.0 0.00 0.00 0.00 100 1018.2
20260502000105 48 37 0.0 0.0 0.00 0.00 0.00 100 1018.3
20260501210105 55 37 0.0 2.6 0.00 0.00 0.00 96 1018.4
20260501203603 55 37 0.0 0.9 0.00 0.00 0.00 94 1018.5
20260501193604 56 37 0.0 5.2 0.00 0.00 0.00 91 1018.4